Regional Weather Roundup
Issued by NWS Midland/Odessa, TX

Skip options and go directly to product.
Home | Oldest Version | Previous Version | Current Version | All | Graphics & Text | Save Text | Print | Product List | Glossary On

Skip product version selection by date and time.   
556
ASUS44 KMAF 120710
RWRMAF
MIDLAND AREA WEATHER ROUNDUP
NATIONAL WEATHER SERVICE MIDLAND TX
100 AM CST FRI FEB 12 2016

...IN SOUTHWEST TEXAS AND SOUTHEAST NEW MEXICO...

CITY           SKY/WX    TMP DP  RH WIND       PRES   REMARKS
ALPINE         CLOUDY    41  20  43 SW12      30.32S WCI  34
ANDREWS        FAIR      40  27  61 CALM      30.20F
ARTESIA        CLOUDY    45  16  31 CALM      30.21S
BIG SPRING     CLOUDY    40  24  53 CALM      30.21S
CARLSBAD       CLOUDY    39  23  52 N5        30.20R WCI  36
DRYDEN           N/A     58  20  22 N9        30.15S
FORT STOCKTON  CLEAR     50  25  37 SW15      30.20S
GUAD PASS      CLOUDY    55  10  16 W13       30.30S
HOBBS          CLOUDY    34  23  64 CALM      30.22S
MARFA          CLOUDY    34  14  43 N9        30.29F WCI  27
MIDLAND AIRPK  CLOUDY    44  29  55 W3        30.20S
MIDLAND INTL   CLOUDY    39  27  62 NW3       30.19S
ODESSA         CLOUDY    43  26  51 CALM      30.20S
PECOS          CLOUDY    37  22  53 CALM      30.20S
PRESIDIO       FAIR      55  16  21 N13       30.20F
SEMINOLE       CLOUDY    38  26  64 NW5       30.21F WCI  34
SNYDER           N/A     47  30  51 NE6       30.19S
WINK           CLOUDY    38  24  57 NW6       30.19R WCI  33
$$
...OTHER STATIONS IN TEXAS...

CITY           SKY/WX    TMP DP  RH WIND       PRES   REMARKS
ABILENE        CLEAR     43  33  68 W5        30.18R
AMARILLO       CLOUDY    37  23  56 SW10      30.20S WCI  30
AUSTIN         PTCLDY    45  42  89 CALM      30.14S
BROWNSVILLE    CLEAR     58  57  97 S7        30.18F
CORPUS CHRISTI PTCLDY    57  55  93 S8        30.16F FOG
DALLAS FTW     CLEAR     50  34  54 N9        30.12S
DEL RIO        CLEAR     57  29  34 NE7       30.13S
EL PASO        PTCLDY    45  19  35 E3        30.23S
HOUSTON INT    CLEAR     60  56  86 S6        30.17S
LUBBOCK        CLOUDY    42  25  50 SW3       30.20S
SAN ANGELO     CLEAR     43  24  47 SW3       30.17S
SAN ANTONIO    CLEAR     52  44  74 CALM      30.16S
WACO           CLEAR     46  36  68 CALM      30.11S
WICHITA FALLS  NOT AVBL
$$
...OTHER LOCATIONS IN NEW MEXICO...

CITY           SKY/WX    TMP DP  RH WIND       PRES   REMARKS
ALAMAGORDO     CLOUDY    41   5  22 CALM      30.26S
ALBUQUERQUE    CLOUDY    49  17  28 NW12      30.34S
CANNON AFB     CLOUDY    45  17  32 SW2       30.20S
CLOVIS         CLOUDY    39  18  41 SW9       30.22S WCI  33
HOLLOMAN AFB   CLOUDY    41   9  26 SE5       30.25R WCI  38
ROSWELL        CLOUDY    42  17  36 W6        30.21S WCI  38
RUIDOSO          N/A     48   9  20 NW7       30.35S
SANTA FE       CLOUDY    40  18  41 N15       30.33S WCI  32
TRUTH OR CONSE CLEAR     49  13  23 NW13      30.28F
TUCUMCARI      CLOUDY    40  17  39 W13       30.18R WCI  32
$$

USA.gov is the U.S. government's official web portal to all federal, state and local government web resources and services.